Regional Weather Roundup
Issued by NWS

Home | Current Version | Previous Version | Graphics & Text | Print | Product List | Glossary On
Versions: 1 2 3 4 5 6 7 8 9 10 11 12 13 14 15 16 17 18 19 20 21 22 23 24 25 26 27 28 29 30 31 32 33 34 35 36 37 38 39 40 41 42 43 44 45 46 47 48 49 50
000
ASUS43 KMKX 011611
RWRWI

WISCONSIN REGIONAL WEATHER ROUNDUP
NATIONAL WEATHER SERVICE MILWAUKEE/SULLIVAN WI
1100 AM CDT FRI AUG 01 2014

NOTE: "FAIR" INDICATES FEW OR NO CLOUDS BELOW 12,000 FEET WITH NO
SIGNIFICANT WEATHER AND/OR OBSTRUCTIONS TO VISIBILITY.

WIZ001-002-006>008-014>016-023>028-011700-
NORTHWEST WISCONSIN

CITY           SKY/WX    TMP DP  RH WIND       PRES   REMARKS
SUPERIOR ARPT  SUNNY     66  54  66 E7        30.08R
ASHLAND        SUNNY     71  56  58 CALM      30.08R
HAYWARD        SUNNY     74  55  51 CALM      30.08R
SIREN          SUNNY     74  61  65 N3        30.07S
RICE LAKE      SUNNY     74  63  68 CALM      30.08R
LADYSMITH      SUNNY     72  64  78 CALM      30.09R
EAU CLAIRE     SUNNY     75  63  66 W6        30.05S
MENOMONIE      SUNNY     77  63  62 SW5       30.06S
NEW RICHMOND   SUNNY     76  62  60 CALM      30.07S
OSCEOLA        SUNNY     76  63  64 NW3       30.09S
$$

WIZ003>005-009-010-017-018-011700-
NORTH CENTRAL WISCONSIN

CITY           SKY/WX    TMP DP  RH WIND       PRES   REMARKS
WOODRUFF       SUNNY     77  54  45 N6        30.09R
RHINELANDER    SUNNY     72  54  53 N6        30.09S
EAGLE RIVER    SUNNY     72  49  45 N3        30.08S
LAND O LAKES   SUNNY     72  49  44 N5        30.10R
PHILLIPS       SUNNY     72  57  58 N3        30.08R
TOMAHAWK       SUNNY     73  56  56 CALM      30.08S
MEDFORD        MOSUNNY   71  63  75 CALM      30.08S
MERRILL        SUNNY     74  61  63 CALM      30.07S
$$

WIZ029-030-035-036-043>047-011700-
CENTRAL WISCONSIN

CITY           SKY/WX    TMP DP  RH WIND       PRES   REMARKS
WAUSAU         SUNNY     74  62  66 VRB3      30.06S
MOSINEE        MOSUNNY   73  63  68 CALM      30.08S
MARSHFIELD     PTSUNNY   72  62  71 CALM      30.08R
STEVENS POINT  MOSUNNY   72  61  68 W6        30.08R
WAUPACA        MOSUNNY   79  60  51 CALM      30.06S HX  80
WAUTOMA        MOSUNNY   81  60  48 SW7       30.07S HX  81
WISC RAPIDS    MOSUNNY   66  62  87 CALM      30.09S
CAMP DOUGLAS   MOSUNNY   77  64  65 NW5       30.08R
$$

WIZ011>013-019>022-031-037>040-048>050-011700-
NORTHEAST WISCONSIN

CITY           SKY/WX    TMP DP  RH WIND       PRES   REMARKS
ANTIGO         SUNNY     74  60  62 W3        30.08S
STURGEON BAY   SUNNY     73  63  68 W3        30.07R
GREEN BAY      SUNNY     75  64  68 VRB5      30.05F
MANITOWOC      MOSUNNY   76  64  66 W5        30.06S
APPLETON       SUNNY     73  61  64 CALM        N/A
CLINTONVILLE   SUNNY     75  59  57 SW3       30.06S
OSHKOSH        PTSUNNY   74  63  68 CALM      30.06S
$$

WIZ032>034-041-042-053>061-011700-
SOUTHWEST WISCONSIN

CITY           SKY/WX    TMP DP  RH WIND       PRES   REMARKS
LA CROSSE      SUNNY     77  61  57 CALM      30.07S
SPARTA         SUNNY     75  59  58 W5        30.09R
VIROQUA        FAIR      75  59  57 NW5       30.10S
BOSCOBEL       SUNNY     80  60  50 W6        30.08F HX  81
PRAIRIE DU CHI SUNNY     77  58  51 CALM      30.08S
PLATTEVILLE    FAIR      77  57  50 CALM      30.11S
$$

WIZ056-057-062-063-064-067-068-011700-
SOUTH CENTRAL WISCONSIN

CITY           SKY/WX    TMP DP  RH WIND       PRES   REMARKS
BARABOO/DELLS  SUNNY     78  56  46 NW7       30.08S
LONE ROCK      SUNNY     81  61  50 W3        30.08S HX  82
WATERTOWN      SUNNY     76  62  61 W5        30.08S
MADISON        SUNNY     78  59  51 VRB6      30.08S
MIDDLETON      FAIR      79  57  47 W3        30.09S HX  80
MONROE         SUNNY     77  57  50 W3        30.10S
JANESVILLE     SUNNY     79  57  47 SW6       30.09R HX  80
$$

WIZ051-052-058>065-066-070>072-011700-
SOUTHEAST WISCONSIN

CITY           SKY/WX    TMP DP  RH WIND       PRES   REMARKS
MILWAUKEE      MOSUNNY   79  56  45 SW5       30.08S HX  80
WAUKESHA       SUNNY     73  57  56 SW7       30.10S
MILWAUKEE/TIMM SUNNY     77  55  47 W6        30.08S
RACINE         SUNNY     79  60  52 SW6       30.10S HX  80
BURLINGTON     SUNNY     76  60  56 SW3       30.09S
KENOSHA        SUNNY     78  63  59 W8        30.10R HX  80
FOND DU LAC    SUNNY     77  62  59 W5        30.07S
SHEBOYGAN      PTSUNNY   77  60  55 W8        30.07R
WEST BEND      SUNNY     77  55  47 W6        30.08S
JUNEAU         SUNNY     76  59  55 SW6       30.09S
$$

LSZ147-162-011700-
LAKE SUPERIOR

STATION/POSITION TIME  TEMP    WIND        PRES    WAVE
                       AIR SEA DIR/SP/G            HT/PER
                 (UTC) (F)     (DEG/KT/KT) (MB)    (FT/S)
W MID LAKE BUOY  1550   47 44   50/  6/  6 1018.6R   0
PORT WING        1500   60     360/  4/  6 1018.3S
SAXON HARBOR     1540             CALM     1018.3S
$$

LMZ867-665-643>646-011700-
LAKE MICHIGAN

STATION/POSITION TIME  TEMP    WIND        PRES    WAVE
                       AIR SEA DIR/SP/G            HT/PER
                 (UTC) (F)     (DEG/KT/KT) (MB)    (FT/S)
N MID LAKE BUOY  1550   58 57  150/  4/  4 1017.7R   1
NORTHPORT PIER   1500   65     110/  5/  6 1017.6S
ALGOMA LAKESHORE 1506             CALM       N/A
KEWAUNEE LAKESHO 1500   63      70/  2/  3 1017.0R
SHEBOYGAN LAKESH 1600   74     170/  5/  6 1017.9R
PORT WASHINGTON  1500   72     190/  6/  8 1018.6
ATWATER BUOY     1600   69     110/  6     1019.3F
MILWAUKEE LAKESH 1500   76     280/  5/  9   N/A
S MID LAKE BUOY  1550   65 63  240/  8/  8 1019.2R   0
KENOSHA   LAKESH 1600   76     140/  1/  4 1018.3S
$$

TC  - TEMPERATURE IN CELSIUS
VSB - VISIBILITY IN STATUTE MILES
WCI - WIND CHILL INDEX
HX  - HEAT INDEX



USA.gov is the U.S. government's official web portal to all federal, state and local government web resources and services.